Regional Weather Roundup
Issued by NWS Little Rock, AR

Home | Current Version | Previous Version | Graphics & Text | Print | Product List | Glossary On
Versions: 1 2 3 4 5 6 7 8 9 10 11 12 13 14 15 16 17 18 19 20 21 22 23 24 25 26 27 28 29 30 31 32 33 34 35 36 37 38 39 40 41 42 43 44 45 46 47 48 49 50
000
ASUS44 KLZK 290405
RWRLZK

WEATHER ROUNDUP FOR ARKANSAS
NATIONAL WEATHER SERVICE LITTLE ROCK AR
1100 PM CDT SUN MAY 28 2017

NOTE: "FAIR" INDICATES FEW OR NO CLOUDS BELOW 12,000 FEET WITH NO
SIGNIFICANT WEATHER AND/OR OBSTRUCTIONS TO VISIBILITY.

ARZ001-003-010-029-290500-
NORTHWEST ARKANSAS

CITY           SKY/WX    TMP DP  RH WIND       PRES   REMARKS
FAYETTEVILLE   CLOUDY    59  59 100 S6        30.01R
FORT SMITH     CLOUDY    68  59  73 CALM      29.99R
HARRISON       CLEAR     61  56  83 SW5       30.00R
BENTONVILLE    CLEAR     64  55  72 CALM      30.01R
ROGERS         CLEAR     64  57  78 S3        30.02R
SILOAM SPGS    CLEAR     63  55  77 CALM      30.01R
HIGHFILL       CLEAR     63  58  83 SW3       30.01R
$$

ARZ004-005-016-290500-
NORTH CENTRAL ARKANSAS

CITY           SKY/WX    TMP DP  RH WIND       PRES   REMARKS
BATESVILLE     CLOUDY    66  61  82 CALM      29.96R
FLIPPIN        CLEAR     63  55  77 CALM      29.95R
MTN HOME       CLEAR     62  57  83 CALM      29.97R
$$

ARZ040-041-290500-
WEST CENTRAL ARKANSAS

CITY           SKY/WX    TMP DP  RH WIND       PRES   REMARKS
MENA           CLOUDY    66  64  94 CALM      30.01R
MOUNT IDA      CLOUDY    69  68  96 CALM      29.97R
$$

ARZ009-017-025-026-028-290500-
NORTHEAST ARKANSAS

CITY           SKY/WX    TMP DP  RH WIND       PRES   REMARKS
JONESBORO      MOCLDY    68  64  87 N3        29.93R
NEWPORT        MOCLDY    70  66  87 NW6       29.94R
WALNUT RIDGE   CLOUDY    70  61  73 NW6       29.93S
BLYTHEVILLE    CLOUDY    71  69  93 NW6       29.92S
$$

ARZ022-023-033-042-044-290500-
CENTRAL ARKANSAS

CITY           SKY/WX    TMP DP  RH WIND       PRES   REMARKS
LITTLE ROCK    CLOUDY    73  70  90 CALM      29.95R
N LITTLE ROCK    N/A     73  65  77 N5        29.95R
JACKSONVILLE   CLOUDY    74  69  85 N3        29.94R
CONWAY           N/A     70  68  94 N5        29.94R
SEARCY         CLOUDY    73  65  75 NW3       29.96S
HOT SPRINGS    CLOUDY    71  70  96 CALM      29.97R
RUSSELLVILLE   CLOUDY    68  63  84 N3        29.96R
CLINTON        FAIR      64  63  94 CALM      29.97S
$$

ARZ036-290500-
EAST ARKANSAS

CITY           SKY/WX    TMP DP  RH WIND       PRES   REMARKS
WEST MEMPHIS   CLOUDY    72  72 100 S3        29.92R
$$

ARZ050-053-066-070-073-290500-
SOUTHWEST ARKANSAS

CITY           SKY/WX    TMP DP  RH WIND       PRES   REMARKS
ARKADELPHIA    CLOUDY    74  72  93 S3        29.97R
CAMDEN         CLOUDY    72  68  88 NW3       29.95R
TEXARKANA      CLOUDY    71  71 100 NW3       29.98R
EL DORADO      CLOUDY    71  69  93 N3        29.95R
DE QUEEN       CLOUDY    68  68 100 CALM      29.96R FOG
$$

ARZ056-057-069-290500-
SOUTHEAST ARKANSAS

CITY           SKY/WX    TMP DP  RH WIND       PRES   REMARKS
PINE BLUFF     CLOUDY    75  71  87 CALM      29.95R
STUTTGART      CLOUDY    77  63  61 CALM      29.95R
MONTICELLO     CLOUDY    75  70  84 SE6       29.96R

$$





USA.gov is the U.S. government's official web portal to all federal, state and local government web resources and services.